Flag for U.S.A. Weather past 2 weeks in Bellingham, Washington, U.S.A.

Now
47 °F

Partly sunny.


Feels Like: 44 °F
Forecast: 34 / 49 °F
Wind: 6 mph from North

Location: Bellingham International Airport

Current Time: Jan 29, 2015 at 12:58:56 PM

Latest Report: Jan 29, 2015 at 11:53 AM


Visibility: 10 mi

Pressure: 30.40 "Hg

Humidity: 66%

Dew point: 36 °F

Location of BellinghamLocation

Historic Weather in Bellingham — Graph

°F

Bellingham temperature yesterday

Maximum temperature yesterday: 55 °F (at 1:53 PM)
Minimum temperature yesterday: 36 °F (at 10:53 PM)
Average temperature yesterday: 45 °F

Past Weeks' High & Low Weather Summary

 TemperatureHumidityPressure
High59 °F (Jan 26, 2:53 PM)100% (Jan 27, 2:03 AM)30.49 "Hg (Jan 27, 2:03 AM)
Low29 °F (Jan 21, 5:53 AM)57% (Jan 15, 2:53 PM)29.48 "Hg (Jan 18, 1:53 AM)
Average45 °F84%30.18 "Hg
* Reported Jan 14 11:53 AM — Jan 29 11:53 AM, Bellingham, Weather by CustomWeather, © 2014

Note: Actual official high and low records may vary slightly from our data, if they occured in-between our weather recording intervals... More about our weather records

Advertising

Bellingham weather history for previous 24 hours

 ConditionsComfort  
Time TempWeatherWind HumidityBarometerVisibility
11:53 AM
Jan 29
47 °FPartly sunny.6 mph66%30.40 "Hg10 mi
10:53 AM44 °FOvercast.8 mph73%30.43 "Hg10 mi
9:53 AM41 °FOvercast.6 mph80%30.42 "Hg10 mi
8:53 AM39 °FOvercast.6 mph82%30.40 "Hg10 mi
7:53 AM36 °FPassing clouds.9 mph85%30.40 "Hg10 mi
6:53 AM36 °FPassing clouds.5 mph85%30.40 "Hg10 mi
5:53 AM37 °FClear.No wind86%30.40 "Hg10 mi
4:53 AM36 °FOvercast.7 mph89%30.40 "Hg10 mi
3:53 AM34 °FPassing clouds.No wind92%30.42 "Hg10 mi
2:53 AM34 °FPassing clouds.6 mph92%30.41 "Hg10 mi
1:53 AM35 °FClear.3 mph92%30.41 "Hg10 mi
12:53 AM36 °FClear.5 mph89%30.41 "Hg10 mi
11:53 PM
Jan 28
36 °FClear.3 mph89%30.42 "Hg10 mi
10:53 PM36 °FClear.3 mph92%30.41 "Hg10 mi
9:53 PM37 °FPassing clouds.3 mph93%30.41 "Hg10 mi
9:00 PM37 °FDense fog.No wind93%30.38 "Hg0 mi
8:53 PM39 °FPassing clouds.No wind89%30.40 "Hg10 mi
7:53 PM38 °FPassing clouds.No wind93%30.40 "Hg10 mi
6:53 PM40 °FFog.No wind89%30.40 "Hg4 mi
5:53 PM43 °FClear.No wind89%30.39 "Hg10 mi
4:53 PM47 °FSunny.No wind77%30.39 "Hg10 mi
3:53 PM53 °FSunny.3 mph61%30.38 "Hg10 mi
2:53 PM53 °FPartly sunny.6 mph59%30.39 "Hg10 mi
1:53 PM55 °FPassing clouds.7 mph57%30.40 "Hg10 mi
12:53 PM54 °FPartly sunny.6 mph64%30.40 "Hg10 mi
Weather by CustomWeather, © 2014

See weather overviewHow to use our weather pages